Weather History for KDCU - January, 2014

Change the Weather History Date:

Sunday, January 19, 2014

  Actual Average Record
Temperature  
Mean Temperature 40 °F -  
Max Temperature 48 °F 48 °F 70 °F (1974)
Min Temperature 33 °F 30 °F 3 °F (1977)
Degree Days  
Heating Degree Days 24    
Moisture  
Dew Point 26 °F    
Average Humidity 58    
Maximum Humidity 75    
Minimum Humidity 43    
Precipitation  
Precipitation 0.00 in - - ()
Sea Level Pressure  
Sea Level Pressure 30.08 in    
Wind  
Wind Speed 6 mph (West)    
Max Wind Speed 13 mph    
Max Gust Speed -    
Visibility 10 miles    
Events      
Averages and records for this station are not official NWS values.
T = Trace of Precipitation, MM = Missing Value Source: NWS Daily Summary

Daily Weather History Graph

Daily Weather History Graph

Search for Another Location

Airport or City:

Trip Planner

Search our weather history database for the weather conditions in past years. The results will help you decide how hot, cold, wet, or windy it might be!

Date:

Astronomy

Jan. 19, 2014 Rise Set
Actual Time 6:53 AM CST 5:04 PM CST
Civil Twilight 6:26 AM CST 5:31 PM CST
Nautical Twilight 5:55 AM CST 6:02 PM CST
Astronomical Twilight 5:25 AM CST 6:32 PM CST
Moon 8:31 PM CST (1/19) 8:32 AM CST (1/19)
Length of Visible Light 11h 05m
Length of Day
10h 10m
Waning Gibbous, 89% of the Moon is Illuminated
Jan 19
Waning Gibbous
Jan 23
Last Quarter
Jan 30
New
Feb 6
First Quarter
Feb 14
Full

Hourly Weather History & Observations

Time (CST) Temp. Windchill Dew Point Humidity Pressure Visibility Wind Dir Wind Speed Gust Speed Precip Events Conditions
12:53 AM 42.1 °F 38.4 °F 21.0 °F 43% 29.92 in 10.0 mi WSW 5.8 mph - N/A   Partly Cloudy
1:53 AM 43.0 °F 39.5 °F 23.0 °F 45% 29.94 in 10.0 mi SW 5.8 mph - N/A   Overcast
2:53 AM 44.1 °F 39.0 °F 26.1 °F 49% 29.96 in 10.0 mi West 9.2 mph - N/A   Mostly Cloudy
3:53 AM 41.0 °F 36.4 °F 26.1 °F 55% 29.98 in 10.0 mi West 6.9 mph - N/A   Clear
4:53 AM 37.9 °F 31.5 °F 27.0 °F 65% 30.02 in 10.0 mi NNW 9.2 mph - N/A   Clear
5:53 AM 35.1 °F 32.2 °F 26.1 °F 70% 30.05 in 10.0 mi NW 3.5 mph - N/A   Clear
6:53 AM 34.0 °F 27.2 °F 27.0 °F 75% 30.08 in 10.0 mi NW 8.1 mph - N/A   Clear
7:53 AM 36.0 °F 30.3 °F 28.0 °F 73% 30.12 in 10.0 mi NW 6.9 mph - N/A   Clear
8:53 AM 39.0 °F 31.8 °F 28.0 °F 65% 30.15 in 10.0 mi NNW 11.5 mph - N/A   Clear
9:53 AM 41.0 °F 36.4 °F 28.0 °F 60% 30.17 in 10.0 mi NW 6.9 mph - N/A   Clear
10:53 AM 42.1 °F 35.2 °F 30.0 °F 62% 30.17 in 10.0 mi West 12.7 mph - N/A   Clear
11:53 AM 43.0 °F 37.7 °F 28.0 °F 56% 30.15 in 10.0 mi West 9.2 mph - N/A   Clear
12:53 PM 45.0 °F 41.2 °F 27.0 °F 49% 30.13 in 10.0 mi West 6.9 mph - N/A   Clear
1:53 PM 46.9 °F - 28.0 °F 48% 30.11 in 10.0 mi NW 8.1 mph - N/A   Clear
2:53 PM 48.9 °F - 27.0 °F 43% 30.10 in 10.0 mi WNW 8.1 mph - N/A   Clear
3:53 PM 48.9 °F - 27.0 °F 43% 30.11 in 10.0 mi WSW 4.6 mph - N/A   Clear
4:53 PM 46.9 °F - 26.1 °F 44% 30.11 in 10.0 mi WSW 5.8 mph - N/A   Clear
5:53 PM 43.0 °F - 26.1 °F 51% 30.11 in 10.0 mi Calm Calm - N/A   Clear
6:53 PM 33.1 °F 30.0 °F 25.0 °F 72% 30.09 in 10.0 mi South 3.5 mph - N/A   Clear
7:53 PM 36.0 °F - 26.1 °F 67% 30.10 in 10.0 mi Calm Calm - N/A   Clear
8:53 PM 33.1 °F - 25.0 °F 72% 30.09 in 10.0 mi Calm Calm - N/A   Clear
9:53 PM 37.0 °F 34.5 °F 24.1 °F 59% 30.09 in 10.0 mi SSW 3.5 mph - N/A   Clear
10:53 PM 36.0 °F - 24.1 °F 62% 30.09 in 10.0 mi Calm Calm - N/A   Clear
11:53 PM 34.0 °F 31.0 °F 25.0 °F 70% 30.06 in 10.0 mi South 3.5 mph - N/A   Clear